Tracking 17887 objects as of 10-December-2016
HD Live streaming from Space Station
objects crossing your sky now

BREEZE-M DEB

Track BREEZE-M DEB now!
10-day predictions


NORAD ID: 34259
Int'l Code: 2006-006CA
Perigee: 1,105.0 km
Apogee: 14,736.1 km
Inclination: 51.0 °
Period: 283.4 minutes
Semi major axis: 14291 km
RCS: 0.2413 m2 (medium)
Launch date: February 28, 2006
Source: Commonwealth of Independent States (former USSR) (CIS)
Launch site: TYURATAM MISSILE AND SPACE COMPLEX (TTMTR)

Note: This is SATELLITE DEBRIS
Your satellite tracking list
Your tracking list is empty





NASA's NSSDC Master Catalog

Two Line Element Set (TLE):
1 34259U 06006CA  16344.80592872 -.00000022  00000-0  00000+0 0  9998
2 34259  50.9845 114.2338 4768925 180.2823 179.4335  5.08141100200883
Source of the keplerian elements: AFSPC